FW7455 Weather Reports


Display with metric or nautical units.
time (UTC)temp
F
wind
direction
speed
MPH
gust
MPH
rain 1hr
in
rain 24hr
in
rain mn
in
humidity
%
barometer
mb
20260505003041 68 214 9.0 15.0 0.00 0.00 0.00 42 1014.4
20260505001539 69 186 2.0 7.0 0.00 0.00 0.00 41 1014.2
20260505000045 70 205 3.0 6.0 0.00 0.00 0.00 40 1014.3
20260504234536 71 220 5.0 10.0 0.00 0.00 0.00 39 1014.3
20260504233039 72 208 7.0 14.0 0.00 0.00 0.00 39 1014.1
20260504231540 72 205 8.0 13.0 0.00 0.00 0.00 39 1013.9
20260504230041 73 202 9.0 17.0 0.00 0.00 0.00 38 1014.0
20260504224539 73 175 8.0 19.0 0.00 0.00 0.00 37 1013.8
20260504223045 74 211 8.0 16.0 0.00 0.00 0.00 36 1013.9
20260504221548 75 182 6.0 13.0 0.00 0.00 0.00 36 1013.8
20260504220035 75 231 7.0 15.0 0.00 0.00 0.00 36 1013.9
20260504214539 75 225 10.0 17.0 0.00 0.00 0.00 35 1013.9
20260504213057 75 204 10.0 15.0 0.00 0.00 0.00 35 1014.0
20260504211546 76 205 8.0 15.0 0.00 0.00 0.00 34 1014.0
20260504210041 76 202 8.0 15.0 0.00 0.00 0.00 34 1014.0
20260504204535 76 79 10.0 16.0 0.00 0.00 0.00 34 1014.3
20260504203050 76 222 7.0 19.0 0.00 0.00 0.00 34 1014.4
20260504201540 76 176 8.0 15.0 0.00 0.00 0.00 34 1014.5
20260504200039 75 205 10.0 17.0 0.00 0.00 0.00 35 1014.6
20260504194541 77 197 6.0 18.0 0.00 0.00 0.00 35 1014.8
20260504193035 77 205 8.0 18.0 0.00 0.00 0.00 34 1014.9
20260504191545 75 138 4.0 14.0 0.00 0.00 0.00 36 1015.0
20260504190042 76 138 10.0 15.0 0.00 0.00 0.00 35 1015.2
20260504184538 76 212 6.0 15.0 0.00 0.00 0.00 35 1015.5
20260504183047 76 211 3.0 17.0 0.00 0.00 0.00 35 1015.7
20260504181538 76 202 5.0 14.0 0.00 0.00 0.00 37 1015.8
20260504180050 76 187 10.0 18.0 0.00 0.00 0.00 34 1016.0
20260504174543 77 184 3.0 11.0 0.00 0.00 0.00 34 1015.8
20260504173038 76 205 3.0 12.0 0.00 0.00 0.00 35 1015.8
20260504171536 74 0 1.0 11.0 0.00 0.00 0.00 35 1016.1
20260504081538 45 233 0.0 4.0 0.00 0.00 0.00 81 1016.8
20260504044541 48 218 2.0 3.0 0.00 0.00 0.00 74 1017.2
20260504043039 49 211 1.0 2.0 0.00 0.00 0.00 72 1017.2
20260504041547 50 211 0.0 2.0 0.00 0.00 0.00 70 1016.8
20260504040110 51 0 0.0 1.0 0.00 0.00 0.00 67 1016.8
20260504034543 52 0 0.0 2.0 0.00 0.00 0.00 67 1017.1
20260504033039 52 211 2.0 3.0 0.00 0.00 0.00 66 1017.1
20260504031539 53 211 0.0 4.0 0.00 0.00 0.00 64 1017.4
20260504030039 54 212 0.0 2.0 0.00 0.00 0.00 62 1017.3
20260504024534 54 0 0.0 3.0 0.00 0.00 0.00 61 1017.2
20260504023050 55 213 2.0 4.0 0.00 0.00 0.00 60 1017.1
20260504021540 56 0 0.0 5.0 0.00 0.00 0.00 58 1017.1
20260504020038 56 207 2.0 5.0 0.00 0.00 0.00 57 1016.8
20260504014550 57 209 4.0 6.0 0.00 0.00 0.00 56 1016.5
20260504013038 56 204 2.0 4.0 0.00 0.00 0.00 58 1016.4
20260504011541 58 202 1.0 2.0 0.00 0.00 0.00 55 1016.3
20260504010044 58 202 2.0 3.0 0.00 0.00 0.00 53 1016.2
20260504004544 59 200 2.0 4.0 0.00 0.00 0.00 50 1016.1